sat.trackr.live / text

‹ back to catalog

STARLINK-31850

NORAD 59903 · 2024-100U

PAYLOAD ACTIVE UNKNOWN

§ Identity

Operator
Country
US
Launch date
2024-05-28
Launch site
AFETR
Launch vehicle
Mass (kg)
RCS (m²)

Purposes: comms

External: N2YO · Heavens-Above · Gunter

§ Orbital elements

Epoch: 2026-05-25T03:35:54.072096Z

Period
94.27 min
Inclination
43.0030°
Eccentricity
0.0001213
Mean motion
15.27584273 rev/d
Perigee alt
482.2 km
Apogee alt
483.9 km
Semi-major
6,861.2 km
B*
2.8763e-5
RAAN
53.3045°
Arg perigee
270.3609°
Mean anomaly
89.7104°
Rev number
11,279

§ Raw data

STARLINK-318501 59903U 24100U   26145.14993139  .00000530  00000+0  28763-4 0  99972 59903  43.0030  53.3045 0001213 270.3609  89.7104 15.27584273112795

JSON: /api/v1/satellites/59903 · /tle

For live sub-satellite position, see the globe view (requires WebGL).

§ Visibility from observer

Set your observer location to see the next 7 days of passes ≥ 10°. The values pass through the URL so the page stays shareable.

No JS? Fill the form by hand. The geolocation button needs JavaScript.